This demonstration page uses our WeatherBlox Daily Observations layout. Learn more.

Left ArrowRight Arrow

34.74481, -87.66753

Hourly Observations for September 23, 2016

Temp ( °F °C ) Dew Point ( °F °C ) Humidity (%) Winds ( mph kmh ) Pressure ( in mb ) Visibility ( mi km ) Precip ( " mm )
12:53 am 00:53 Clear 70 21.1 64 17.8 82 82 Calm 30.03 1017 10 16 0.00 0.00
1:53 am 01:53 Clear 68 20 64 17.8 87 87 Calm 30.03 1017 10 16 0.00 0.00
2:53 am 02:53 Clear 68 20 63 17.2 84 84 Calm 30.02 1017 10 16 0.00 0.00
3:53 am 03:53 Clear 67 19.4 63 17.2 87 87 Calm 30.02 1017 10 16 0.00 0.00
4:53 am 04:53 Clear 67 19.4 63 17.2 87 87 Calm 30.03 1017 9 14 0.00 0.00
5:53 am 05:53 Clear 66 18.9 63 17.2 90 90 Calm 30.05 1018 9 14 0.00 0.00
6:53 am 06:53 Sunny 66 18.9 62 16.7 87 87 Calm 30.08 1019 7 11 0.00 0.00
7:53 am 07:53 Sunny 70 21.1 65 18.3 84 84 Calm 30.09 1019 8 13 0.00 0.00
8:53 am 08:53 Sunny 77 25 68 20 74 74 ESE 3 6 30.09 1019 10 16 0.00 0.00
9:53 am 09:53 Sunny 83 28.3 64 17.8 53 53 Calm 30.09 1019 10 16 0.00 0.00
10:53 am 10:53 Sunny 89 31.7 64 17.8 43 43 Calm 30.08 1019 10 16 0.00 0.00
11:53 am 11:53 Sunny 93 33.9 61 16.1 34 34 VRB 3 6 30.07 1018 10 16 0.00 0.00
12:53 pm 12:53 Mostly Cloudy 92 33.3 59 15 33 33 NNW 3 6 30.05 1018 10 16 0.00 0.00
1:53 pm 13:53 Mostly Cloudy with Haze 98 36.7 57 13.9 25 25 NW 7 11 30.02 1017 4 6 0.00 0.00
2:18 pm 14:18 Hazy 96 35.6 57 13.9 27 27 VRB 6 9 29.97 1015 3 4 0.00 0.00
2:32 pm 14:32 Mostly Sunny 95 35 58 14.4 29 29 VRB 7 11 29.97 1015 9 14 0.00 0.00
2:53 pm 14:53 Sunny 97 36.1 59 15 28 28 W 7 11 30.00 1016 10 16 0.00 0.00
3:02 pm 15:02 Hazy 97 36.1 58 14.4 27 27 W 9 15 29.97 1015 1 2 0.00 0.00
3:13 pm 15:13 Hazy 97 36.1 58 14.4 27 27 NW 7 11 29.97 1015 4 6 0.00 0.00
3:23 pm 15:23 Hazy 97 36.1 59 15 28 28 VRB 7 11 29.97 1015 6 10 0.00 0.00
3:53 pm 15:53 Sunny 96 35.6 59 15 29 29 VRB 6 9 29.99 1016 10 16 0.00 0.00
4:53 pm 16:53 Sunny 94 34.4 57 13.9 29 29 ENE 5 7 29.98 1015 10 16 0.00 0.00
5:53 pm 17:53 Sunny 92 33.3 59 15 33 33 ENE 5 7 29.99 1016 10 16 0.00 0.00
6:53 pm 18:53 Clear 86 30 61 16.1 43 43 Calm 30.00 1016 10 16 0.00 0.00
7:53 pm 19:53 Clear 80 26.7 63 17.2 56 56 Calm 30.01 1016 10 16 0.00 0.00
8:53 pm 20:53 Clear 78 25.6 65 18.3 64 64 NE 3 6 30.02 1017 10 16 0.00 0.00
9:53 pm 21:53 Clear 79 26.1 63 17.2 58 58 ENE 3 6 30.03 1017 10 16 0.00 0.00
10:53 pm 22:53 Clear 74 23.3 65 18.3 74 74 Calm 30.04 1017 10 16 0.00 0.00
11:53 pm 23:53 Clear 72 22.2 64 17.8 76 76 Calm 30.04 1017 10 16 0.00 0.00

Powered by AerisWeather